7 * 24
多渠道服务支持
COSMOS 2324是苏联解体后独立国家联合体(CIS)发射的GLONASS全球卫星导航系统组网卫星,于1995年12月14日发射入轨。它属于第一代GLONASS卫星,运行在约19000千米高度的中圆轨道,倾角64.8°,承担着为全球用户提供定位、导航服务的任务,助力GLONASS完成早期星座组网,是该系统建设进程中的重要组成部分。
俄罗斯(独联体)
(CIS)
| 数据来源 | 国际轨道数据 |
| 星历时间: | 2026-09-08T14:49:57+0800 3天前 查看轨道信息 |
| 半长轴: | 25507.977km |
| 偏心率: | 0.0003471 |
| 轨道倾角: | 65.473° |
| 近地点辐角 | 102.851° |
| 升交点赤经 | 200.041° |
| 平近点角 | 257.164° |
| 近地点: | 19120.986km |
| 远地点: | 19138.694km |
| 周期: | 675.731分钟 |
| 每日圈数: | 2.131026 |